パンスターズ彗星

P/2021 R1 ( PanSTARRS )

English version
Home page
Updated on October 8, 2022

---------------------------------------------------------------------

・ プロフィール

発見日 2021年9月4日
発見光度 20.6等
発見者 Pan-STARRS 1 telescope (Haleakala)

・ 写真集

・ 軌道要素

Epoch 2022 Aug. 9.0 TT = JDT 2459800.5
T 2021 Dec. 17.76325 TT                                 Rudenko
q   4.8858284            (2000.0)            P               Q
n   0.04064804     Peri.  220.36861     +0.99606008     -0.06762560
a   8.3774070      Node   143.38801     +0.08268310     +0.94206105
e   0.4167851      Incl.    5.51992     -0.03205978     +0.32855403
P  24.2
From 123 observations 2020 Aug. 10-2022 Oct. 4, mean residual 0".2.

・ 光度変化

        m1 = 11.0 + 5 logΔ + 10.0 log r

---------------------------------------------------------------------

軌道要素はM.P.E.C. 2022-T100に掲載されたものです。
光度グラフはComet for Windowsで作成したものです。

---------------------------------------------------------------------

Copyright(C) Seiichi Yoshida (comet@aerith.net). All rights reserved.